Find Starlink 11263

NORAD ID: 60725 Int'l Des: 2024-152 Owner: SPXS Country: US Constellation: starlink operational
LEOCIRCULAR

現在のビュー

3D地球を読み込み中...

About Starlink 11263

Starlink 11263 (NORAD 60725) is a starlink constellation satellite (v2 mini d2c) launched Aug 28, 2024 by SPXS of US. It operates in LEO, CIRCULAR orbit with a mass of 960.00 kg.

Starlink 11263について

説明を読み込み中...

次回通過

Passes for default location (London). Set your location on the main map for personalized predictions.

高度履歴

Loading altitude history...

軌道要素

1 60725C 24152F 26173.83520833 .00052365 00000+0 43154-3 0 1739
2 60725 53.1570 317.9616 0001083 75.5532 114.7055 15.69672612 14
Epoch: Jun 22, 2026 • Age: 17 hours

現在のステータス

高度 361.1 km
速度 7.70 km/s
衛星直下点 30.99°N, 6.66°E
打ち上げ日 Aug 28, 2024
運用期間 1.8 years
タイプ internet

技術仕様

分類 Payload
質量 960.00 kg
乾燥質量 910.00 kg
総質量 960.00 kg
長さ 0.30 m
直径 4.10 m
スパン 29.00 m
形状 Box + pan
製造者 SPXS
バスタイプ Starlink V2MD
フェーズステータス In Orbit
所有者/国 SPXS/US

Most Searched